This is the latest recevied weather packets stored in our database for station/object K7D3. If no packets are shown the sender has not sent any weather packets the latest 10 day(s).
| Time | Temp. | Humidity | Pressure | Rain* | Wind** | Luminosity | Snow |
|---|---|---|---|---|---|---|---|
| 1777644811 | 3.89° C | 67% | - | 0 mm | 2.24 m/s, 35° | - | - |
| 1777644332 | 3.89° C | 69% | - | 0 mm | 2.24 m/s, 45° | - | - |
| 1777643850 | 3.89° C | 71% | - | 0 mm | 1.79 m/s, 84° | - | - |
| 1777643371 | 3.33° C | 71% | - | 0 mm | 2.68 m/s, 58° | - | - |
| 1777642892 | 3.33° C | 70% | - | 0 mm | 4.02 m/s, 65° | - | - |
| 1777642409 | 3.33° C | 73% | - | 0 mm | 2.24 m/s, 53° | - | - |
| 1777641930 | 3.33° C | 74% | - | 0 mm | 3.58 m/s, 91° | - | - |
| 1777641451 | 3.33° C | 75% | - | 0 mm | 3.13 m/s, 65° | - | - |
| 1777640969 | 3.33° C | 75% | - | 0 mm | 2.68 m/s, 72° | - | - |
| 1777640490 | 3.33° C | 77% | - | 0 mm | 2.68 m/s, 68° | - | - |
| 1777640011 | 2.78° C | 78% | - | 0 mm | 2.68 m/s, 97° | - | - |
| 1777639528 | 2.78° C | 80% | - | 0 mm | 2.68 m/s, 65° | - | - |
| 1777639049 | 3.33° C | 80% | - | 0 mm | 3.58 m/s, 121° | - | - |
| 1777638569 | 2.78° C | 81% | - | 0 mm | 2.68 m/s, 65° | - | - |
| 1777638087 | 2.78° C | 81% | - | 0 mm | 2.68 m/s, 65° | - | - |
| 1777637607 | 2.78° C | 82% | - | 0 mm | 0.45 m/s, 65° | - | - |
| 1777637128 | 2.78° C | 81% | - | 0 mm | 3.13 m/s, 65° | - | - |
| 1777636643 | 2.78° C | 83% | - | 0 mm | 0 m/s | - | - |
| 1777636164 | 2.78° C | 83% | - | 0 mm | 1.34 m/s, 121° | - | - |
| 1777635685 | 2.78° C | 85% | - | 0 mm | 2.24 m/s, 87° | - | - |
| 1777635202 | 2.22° C | 86% | - | 0 mm | 2.24 m/s, 84° | - | - |
| 1777634722 | 2.22° C | 89% | - | 0 mm | 0 m/s | - | - |
| 1777634243 | 2.22° C | 91% | - | 0 mm | 0 m/s | - | - |
| 1777633759 | 1.67° C | 91% | - | 0 mm | 0 m/s | - | - |
| 1777633280 | 1.67° C | 92% | - | 0 mm | 0 m/s | - | - |
* Rain latest hour (hover to see other rain measurements)
** Current wind speed in m/s (hover to see current wind gust speed)